Weather History for Rifle, CO

Change the Weather History Date:

Tuesday, November 6, 2012

  Actual Average Record
Temperature  
Mean Temperature 48 °F 40 °F  
Max Temperature 68 °F 54 °F 75 °F (1934)
Min Temperature 28 °F 26 °F 10 °F (1933)
Degree Days  
Heating Degree Days 17 25  
Month to date heating degree days 107 144  
Since 1 July heating degree days 645 788  
Cooling Degree Days 0 0  
Month to date cooling degree days 0 0  
Year to date cooling degree days 809 541  
Moisture  
Dew Point 25 °F    
Average Humidity 49    
Maximum Humidity 78    
Minimum Humidity 19    
Precipitation  
Precipitation 0.00 in 0.05 in 0.47 in (1953)
Month to date precipitation 0.00 0.32  
Year to date precipitation 6.80 12.68  
Sea Level Pressure  
Sea Level Pressure 30.30 in    
Wind  
Wind Speed 1 mph (SSE)    
Max Wind Speed 9 mph    
Max Gust Speed 10 mph    
Visibility 10 miles    
Events      
T = Trace of Precipitation, MM = Missing Value Source: NWS Daily Summary

Daily Weather History Graph

Daily Weather History Graph

Search for Another Location

Airport:

Trip Planner

Search our weather history database for the weather conditions in past years. The results will help you decide how hot, cold, wet, or windy it might be!

Date:

Astronomy

Nov. 06, 2012 Rise Set
Actual Time 6:45 AM MST 5:03 PM MST
Civil Twilight 6:17 AM MST 5:31 PM MST
Nautical Twilight 5:45 AM MST 6:03 PM MST
Astronomical Twilight 5:13 AM MST 6:34 PM MST
Moon 11:45 PM MST (11/6) 12:39 PM MST (11/6)
Length of Visible Light 11h 14m
Length of Day
10h 17m
Waning Gibbous, 52% of the Moon is Illuminated
Nov 6
Waning Gibbous
Nov 6
Last Quarter
Nov 13
New
Nov 20
First Quarter
Nov 28
Full

Hourly Weather History & Observations

Time (MST) Temp. Windchill Dew Point Humidity Pressure Visibility Wind Dir Wind Speed Gust Speed Precip Events Conditions
12:53 AM 36.0 °F - 25.0 °F 64% 30.32 in 10.0 mi Calm Calm - N/A   Clear
1:53 AM 33.1 °F - 24.1 °F 70% 30.33 in 10.0 mi Calm Calm - N/A   Clear
2:53 AM 32.0 °F - 24.1 °F 73% 30.33 in 10.0 mi Calm Calm - N/A   Clear
3:53 AM 28.9 °F - 23.0 °F 78% 30.33 in 10.0 mi Calm Calm - N/A   Clear
4:53 AM 32.0 °F - 24.1 °F 73% 30.35 in 10.0 mi Calm Calm - N/A   Clear
5:53 AM 30.0 °F - 23.0 °F 75% 30.37 in 10.0 mi Calm Calm - N/A   Clear
6:53 AM 28.0 °F 24.2 °F 21.9 °F 78% 30.41 in 10.0 mi SSW 3.5 mph - N/A   Clear
7:53 AM 35.1 °F - 26.1 °F 70% 30.41 in 10.0 mi Calm Calm - N/A   Clear
8:53 AM 39.9 °F - 27.0 °F 60% 30.41 in 10.0 mi Calm Calm - N/A   Clear
9:53 AM 46.0 °F - 28.0 °F 50% 30.38 in 10.0 mi Calm Calm - N/A   Clear
10:53 AM 51.1 °F - 28.0 °F 41% 30.35 in 10.0 mi Calm Calm - N/A   Clear
11:53 AM 57.9 °F - 28.0 °F 32% 30.29 in 10.0 mi East 3.5 mph - N/A   Clear
12:53 PM 61.0 °F - 27.0 °F 27% 30.24 in 10.0 mi Calm Calm - N/A   Clear
1:53 PM 64.9 °F - 27.0 °F 24% 30.21 in 10.0 mi Calm Calm - N/A   Clear
2:53 PM 66.9 °F - 26.1 °F 21% 30.18 in 10.0 mi Calm Calm - N/A   Clear
3:53 PM 68.0 °F - 25.0 °F 20% 30.18 in 10.0 mi Calm Calm - N/A   Clear
4:53 PM 59.0 °F - 25.0 °F 27% 30.20 in 10.0 mi SSW 4.6 mph - N/A   Clear
5:53 PM 52.0 °F - 24.1 °F 34% 30.25 in 10.0 mi South 4.6 mph - N/A   Clear
6:53 PM 48.0 °F - 24.1 °F 39% 30.28 in 10.0 mi South 4.6 mph - N/A   Clear
7:53 PM 46.0 °F 44.8 °F 23.0 °F 40% 30.26 in 10.0 mi ENE 3.5 mph - N/A   Clear
8:53 PM 41.0 °F - 23.0 °F 49% 30.27 in 10.0 mi Calm Calm - N/A   Clear
9:53 PM 39.9 °F - 23.0 °F 51% 30.26 in 10.0 mi Calm Calm - N/A   Clear
10:53 PM 36.0 °F 33.3 °F 21.9 °F 57% 30.26 in 10.0 mi ESE 3.5 mph - N/A   Clear
11:53 PM 35.1 °F 32.2 °F 21.0 °F 57% 30.24 in 10.0 mi SW 3.5 mph - N/A   Clear